Starlink 32524

operational
NORAD ID: 62159 Int'l Des: 2024-224 Owner: SPXS Country: US Constellation: starlink
LEOCIRCULAR

Starlink 32524について

説明を読み込み中...

リアルタイム位置

3D地球を読み込み中...

次回通過

高度履歴

Altitude vs Time

uPlot chart will show altitude changes over time

軌道要素

1 62159U 24224W 25352.17690992 .00028058 00000-0 10250-2 0 9990
2 62159 43.0002 261.9097 0001679 264.5449 95.5212 15.27588682 59814
Epoch: Dec 18, 2025 • Age: 29 hours

現在のステータス

高度 482.2 km
速度 7.63 km/s
衛星直下点 12.63°N, 164.88°W
打ち上げ日 Nov 30, 2024
運用期間 1 years
タイプ internet

技術仕様

分類 Payload
質量 730.00 kg
乾燥質量 700.00 kg
総質量 730.00 kg
長さ 0.30 m
直径 4.10 m
スパン 29.00 m
形状 Box + pan
製造者 SPXS
バスタイプ Starlink V2M
フェーズステータス In Orbit
所有者/国 SPXS/US

大規模コンステレーション

Loading constellations...